This demonstration page uses our WeatherBlox Daily Observations layout. Learn more.

Left ArrowRight Arrow

39.29038, -76.61219

Hourly Observations for October 16, 2016

Temp ( °F °C ) Dew Point ( °F °C ) Humidity (%) Winds ( mph kmh ) Pressure ( in mb ) Visibility ( mi km ) Precip ( " mm )
12:54 am 00:54 undefined 55 12.8 45 7.2 69 69 undefined N/A 30.30 1026 N/A 0.00 0.00
1:54 am 01:54 undefined 55 12.8 46 7.8 72 72 undefined N/A 30.29 1026 N/A 0.00 0.00
2:54 am 02:54 undefined 54 12.2 47 8.3 77 77 undefined N/A 30.28 1025 N/A 0.00 0.00
3:54 am 03:54 undefined 54 12.2 47 8.3 77 77 undefined N/A 30.27 1025 N/A 0.00 0.00
4:54 am 04:54 undefined 53 11.7 48 8.9 83 83 undefined N/A 30.26 1025 N/A 0.00 0.00
5:54 am 05:54 undefined 53 11.7 48 8.9 83 83 undefined N/A 30.26 1025 N/A 0.00 0.00
6:54 am 06:54 undefined 53 11.7 49 9.4 86 86 undefined N/A 30.25 1024 N/A 0.00 0.00
7:54 am 07:54 undefined 53 11.7 49 9.4 86 86 undefined N/A 30.24 1024 N/A 0.00 0.00
8:54 am 08:54 undefined 56 13.3 50 10 81 81 undefined N/A 30.24 1024 N/A 0.00 0.00
9:54 am 09:54 undefined 56 13.3 52 11.1 87 87 undefined N/A 30.23 1024 N/A 0.00 0.00
10:54 am 10:54 undefined 62 16.7 53 11.7 73 73 undefined N/A 30.22 1023 N/A 0.00 0.00
11:54 am 11:54 undefined 67 19.4 54 12.2 63 63 undefined N/A 30.20 1023 N/A 0.00 0.00
12:54 pm 12:54 undefined 70 21.1 55 12.8 59 59 undefined N/A 30.17 1022 N/A 0.00 0.00
1:54 pm 13:54 undefined 73 22.8 55 12.8 53 53 undefined N/A 30.13 1020 N/A 0.00 0.00
2:54 pm 14:54 undefined 75 23.9 55 12.8 50 50 undefined N/A 30.11 1020 N/A 0.00 0.00
3:54 pm 15:54 undefined 73 22.8 58 14.4 59 59 undefined N/A 30.09 1019 N/A 0.00 0.00
4:54 pm 16:54 undefined 70 21.1 59 15 68 68 undefined N/A 30.08 1019 N/A 0.00 0.00
5:54 pm 17:54 undefined 69 20.6 59 15 70 70 undefined N/A 30.07 1018 N/A 0.00 0.00
6:54 pm 18:54 undefined 69 20.6 59 15 70 70 undefined N/A 30.06 1018 N/A 0.00 0.00
7:54 pm 19:54 undefined 67 19.4 60 15.6 79 79 undefined N/A 30.06 1018 N/A 0.00 0.00
8:54 pm 20:54 undefined 65 18.3 60 15.6 84 84 undefined N/A 30.06 1018 N/A 0.00 0.00
9:54 pm 21:54 undefined 65 18.3 59 15 81 81 undefined N/A 30.07 1018 N/A 0.00 0.00
10:54 pm 22:54 undefined 65 18.3 59 15 81 81 undefined N/A 30.07 1018 N/A 0.00 0.00
11:54 pm 23:54 undefined 64 17.8 59 15 84 84 undefined N/A 30.06 1018 N/A 0.00 0.00

Powered by AerisWeather